This is the latest recevied weather packets stored in our database for station/object PU5FJO-13. If no packets are shown the sender has not sent any weather packets the latest 10 day(s).
| Time | Temp. | Humidity | Pressure | Rain* | Wind** | Luminosity | Snow |
|---|---|---|---|---|---|---|---|
| 1777334166 | 20° C | 61% | 1018.2 hPa | - | - | - | - |
| 1777333566 | 20° C | 58% | 1018.2 hPa | - | - | - | - |
| 1777332966 | 20.56° C | 56% | 1018 hPa | - | - | - | - |
| 1777332366 | 20° C | 57% | 1017.9 hPa | - | - | - | - |
| 1777331766 | 20° C | 54% | 1017.7 hPa | - | - | - | - |
| 1777331166 | 20° C | 54% | 1017.6 hPa | - | - | - | - |
| 1777330566 | 20° C | 55% | 1017.4 hPa | - | - | - | - |
| 1777329966 | 20° C | 57% | 1017.1 hPa | - | - | - | - |
| 1777329366 | 20.56° C | 56% | 1017 hPa | - | - | - | - |
| 1777328766 | 20° C | 55% | 1016.8 hPa | - | - | - | - |
| 1777328166 | 20° C | 58% | 1016.7 hPa | - | - | - | - |
| 1777327566 | 20° C | 59% | 1016.5 hPa | - | - | - | - |
| 1777326966 | 20° C | 59% | 1016.5 hPa | - | - | - | - |
| 1777326366 | 20° C | 57% | 1016.3 hPa | - | - | - | - |
| 1777325766 | 20.56° C | 57% | 1016.3 hPa | - | - | - | - |
| 1777325166 | 20.56° C | 57% | 1016.2 hPa | - | - | - | - |
| 1777324566 | 20.56° C | 57% | 1016 hPa | - | - | - | - |
| 1777323965 | 20.56° C | 58% | 1015.9 hPa | - | - | - | - |
| 1777323365 | 21.11° C | 57% | 1015.6 hPa | - | - | - | - |
| 1777322766 | 21.11° C | 57% | 1015.4 hPa | - | - | - | - |
| 1777322165 | 21.11° C | 59% | 1015.3 hPa | - | - | - | - |
| 1777321566 | 21.11° C | 62% | 1015.2 hPa | - | - | - | - |
| 1777320966 | 21.11° C | 63% | 1015 hPa | - | - | - | - |
| 1777320365 | 21.11° C | 64% | 1014.9 hPa | - | - | - | - |
| 1777319766 | 21.67° C | 64% | 1014.8 hPa | - | - | - | - |
* Rain since midnight (hover to see other rain measurements)
** Current wind speed in m/s (hover to see current wind gust speed)